This demonstration page uses our WeatherBlox Daily Observations layout. Learn more.

Left ArrowRight Arrow

34.74481, -87.66753

Hourly Observations for July 4, 2016

Temp ( °F °C ) Dew Point ( °F °C ) Humidity (%) Winds ( mph kmh ) Pressure ( in mb ) Visibility ( mi km ) Precip ( " mm )
12:53 am 00:53 Clear 79 26.1 69 20.6 72 72 SSW 5 7 29.96 1015 10 16 0.00 0.00
1:53 am 01:53 Clear 75 23.9 69 20.6 82 82 S 5 7 29.96 1015 9 14 0.00 0.00
2:53 am 02:53 Clear 75 23.9 69 20.6 82 82 SSW 3 6 29.96 1014 9 14 0.00 0.00
3:53 am 03:53 Clear 74 23.3 69 20.6 85 85 SSE 3 6 29.96 1015 9 14 0.00 0.00
4:53 am 04:53 Clear 77 25 69 20.6 77 77 S 6 9 29.97 1015 10 16 0.00 0.00
5:53 am 05:53 Sunny 76 24.4 69 20.6 79 79 SSW 6 9 29.98 1015 9 14 0.00 0.00
6:53 am 06:53 Sunny 79 26.1 70 21.1 74 74 SSW 8 13 29.99 1016 9 14 0.00 0.00
7:53 am 07:53 Sunny 82 27.8 71 21.7 69 69 SW 13 20 30.00 1016 10 16 0.00 0.00
8:53 am 08:53 Sunny 86 30 72 22.2 63 63 SW 12 19 30.00 1016 10 16 0.00 0.00
9:53 am 09:53 Mostly Sunny 89 31.7 72 22.2 57 57 SW 15 24 29.99 1016 10 16 0.00 0.00
10:53 am 10:53 Mostly Sunny 91 32.8 70 21.1 50 50 SW 13 20 29.99 1016 10 16 0.00 0.00
11:53 am 11:53 Partly Cloudy 92 33.3 70 21.1 49 49 SSW 20 31 29.98 1015 10 16 0.00 0.00
12:53 pm 12:53 Mostly Cloudy 92 33.3 69 20.6 47 47 WSW 17 28 29.98 1015 10 16 0.00 0.00
1:53 pm 13:53 Partly Cloudy 95 35 68 20 41 41 SW 16 26 29.96 1015 10 16 0.00 0.00
2:53 pm 14:53 Partly Cloudy 96 35.6 68 20 40 40 SW 20 31 29.95 1014 10 16 0.00 0.00
3:53 pm 15:53 Sunny 96 35.6 67 19.4 39 39 SW 15 24 29.93 1014 10 16 0.00 0.00
4:53 pm 16:53 Mostly Sunny 95 35 66 18.9 39 39 W 15 24 29.93 1013 10 16 0.00 0.00
5:53 pm 17:53 Mostly Cloudy 94 34.4 65 18.3 38 38 SW 16 26 29.91 1013 10 16 0.00 0.00
6:53 pm 18:53 Mostly Cloudy 91 32.8 68 20 47 47 S 10 17 29.91 1013 10 16 0.00 0.00
7:53 pm 19:53 Partly Cloudy 89 31.7 68 20 50 50 SSW 7 11 29.91 1013 10 16 0.00 0.00
8:53 pm 20:53 Partly Cloudy 87 30.6 69 20.6 55 55 WSW 6 9 29.91 1013 10 16 0.00 0.00
9:09 pm 21:09 Mostly Cloudy with Thunderstorms 85 29.4 70 21.1 61 61 W 9 15 29.91 1013 10 16 0.00 0.03
9:24 pm 21:24 Mostly Cloudy 82 27.8 72 22.2 72 72 W 6 9 29.91 1013 10 16 0.00 0.03
9:36 pm 21:36 Mostly Cloudy with Thunderstorms 81 27.2 72 22.2 74 74 W 14 22 29.94 1014 10 16 0.00 0.03
9:53 pm 21:53 Cloudy with Strong Thunderstorms 78 25.6 74 23.3 87 87 W 14 22 29.96 1015 3 5 0.10 2.54
10:13 pm 22:13 Cloudy with Nearby Thunderstorms 77 25 73 22.8 88 88 WSW 7 11 29.97 1015 10 16 0.01 0.25
10:46 pm 22:46 Clear 77 25 72 22.2 85 85 WSW 3 6 29.97 1015 10 16 0.01 0.25
10:53 pm 22:53 Clear 77 25 72 22.2 85 85 SW 3 6 29.97 1015 10 16 0.01 0.25
11:53 pm 23:53 Clear 76 24.4 72 22.2 88 88 SW 7 11 29.97 1015 10 16 0.01 0.25

Powered by AerisWeather